Location: Celina Elementary School
(33.3262°N, 96.7767°W)
Time: 08:03:27
(UTC+00:00)

Cosmos 2082 Rocket - Pass Details

Date: 26 November 2021
Orbit: 835 x 852 km, 71.0° (Epoch: 19 January)

Event Time Altitude Azimuth Distance (km) Brightness Sun altitude
Exits shadow 12:35:52 - 328° (NNW) 3,238 4.8 -7.2°
Reaches altitude 10° 12:38:04 10° 320° (NW) 2,449 4.1 -6.7°
Maximum altitude 12:43:07 35° 256° (WSW) 1,314 2.8 -5.7°
Drops below altitude 10° 12:48:08 10° 192° (SSW) 2,434 4.7 -4.8°
Sets 12:50:45 0° 183° (S) 3,365 5.6 -4.3°
